ECMWFNIL_prec_pwat_060.txt.gz
Precipitable_Water
1.07 1.03 1.01 1.02 1.03 1.05 1.09 1.15 1.19 1.18 1.18 1.20 1.17 1.18 1.20 1.27 1.33 1.32 1.34 1.40 1.44 1.45 1.46 1.47 1.45 1.47 1.50 1.51 1.52 1.55 1.61 1.61 1.61 1.60 1.52 1.48 1.41 1.32 1.26 1.22 1.18 1.15
1.03 1.03 1.02 1.03 1.04 1.06 1.07 1.16 1.22 1.21 1.20 1.21 1.22 1.23 1.23 1.26 1.28 1.31 1.29 1.29 1.35 1.40 1.45 1.45 1.46 1.43 1.45 1.45 1.46 1.46 1.52 1.56 1.53 1.59 1.53 1.49 1.46 1.40 1.32 1.28 1.23 1.22
1.03 1.03 1.02 0.97 0.97 0.99 1.02 1.10 1.17 1.23 1.24 1.24 1.26 1.26 1.27 1.28 1.28 1.27 1.31 1.29 1.29 1.34 1.42 1.46 1.46 1.46 1.46 1.46 1.44 1.41 1.42 1.45 1.45 1.51 1.50 1.48 1.50 1.45 1.41 1.36 1.31 1.27
1.00 1.00 0.98 0.98 0.99 1.00 1.04 1.05 1.08 1.15 1.23 1.25 1.22 1.24 1.28 1.28 1.28 1.28 1.26 1.30 1.29 1.30 1.36 1.40 1.42 1.47 1.49 1.50 1.48 1.40 1.39 1.40 1.40 1.44 1.43 1.45 1.49 1.47 1.44 1.41 1.37 1.33
0.98 0.98 0.99 0.98 1.01 1.03 1.05 1.01 1.01 1.07 1.12 1.18 1.27 1.28 1.23 1.24 1.28 1.28 1.27 1.27 1.28 1.30 1.36 1.37 1.38 1.41 1.46 1.49 1.50 1.43 1.40 1.38 1.40 1.41 1.39 1.36 1.42 1.45 1.45 1.41 1.37 1.33
0.97 0.97 0.98 0.99 1.00 1.00 1.01 0.97 0.97 1.03 1.07 1.11 1.19 1.28 1.28 1.24 1.28 1.28 1.30 1.29 1.29 1.30 1.33 1.37 1.38 1.38 1.41 1.43 1.48 1.45 1.42 1.37 1.38 1.38 1.36 1.34 1.34 1.40 1.42 1.39 1.35 1.32
0.93 0.95 0.96 1.01 1.02 1.02 0.98 0.98 0.99 1.03 1.08 1.12 1.21 1.23 1.29 1.27 1.22 1.26 1.32 1.34 1.33 1.30 1.31 1.34 1.33 1.33 1.37 1.39 1.39 1.39 1.41 1.41 1.39 1.37 1.32 1.34 1.34 1.34 1.39 1.38 1.34 1.31
0.91 0.93 0.94 0.97 0.98 0.99 0.95 0.97 1.01 1.04 1.07 1.16 1.17 1.22 1.27 1.29 1.25 1.24 1.31 1.38 1.36 1.34 1.33 1.38 1.38 1.33 1.31 1.33 1.33 1.31 1.32 1.39 1.38 1.37 1.31 1.30 1.33 1.30 1.33 1.35 1.34 1.30
0.92 0.92 0.92 0.93 0.93 0.95 0.94 0.95 1.01 1.08 1.10 1.12 1.17 1.23 1.28 1.29 1.31 1.28 1.29 1.35 1.36 1.38 1.36 1.36 1.39 1.36 1.33 1.28 1.26 1.27 1.27 1.30 1.33 1.34 1.31 1.26 1.26 1.27 1.29 1.32 1.29 1.26
0.93 0.94 0.91 0.91 0.93 0.97 0.94 0.97 1.02 1.06 1.13 1.14 1.18 1.24 1.29 1.30 1.34 1.37 1.36 1.33 1.33 1.36 1.38 1.34 1.35 1.35 1.33 1.31 1.25 1.23 1.23 1.23 1.27 1.30 1.32 1.29 1.26 1.25 1.27 1.29 1.26 1.24
0.95 0.98 0.99 0.96 0.96 0.99 0.98 1.01 1.03 1.09 1.12 1.13 1.16 1.20 1.32 1.34 1.32 1.38 1.40 1.36 1.30 1.30 1.34 1.33 1.31 1.32 1.31 1.30 1.28 1.27 1.23 1.22 1.24 1.25 1.26 1.29 1.30 1.29 1.27 1.26 1.25 1.23
1.01 1.00 0.99 1.00 1.02 1.01 1.02 1.04 1.06 1.08 1.17 1.19 1.23 1.21 1.22 1.31 1.32 1.32 1.36 1.35 1.31 1.29 1.31 1.32 1.32 1.34 1.33 1.31 1.30 1.30 1.28 1.28 1.27 1.24 1.21 1.24 1.30 1.32 1.30 1.29 1.26 1.25
1.07 1.04 1.03 1.06 1.05 1.06 1.09 1.08 1.11 1.13 1.18 1.26 1.27 1.28 1.20 1.21 1.33 1.29 1.33 1.36 1.35 1.32 1.30 1.31 1.33 1.34 1.35 1.34 1.32 1.32 1.32 1.30 1.31 1.28 1.22 1.20 1.23 1.29 1.33 1.31 1.29 1.30
1.24 1.12 1.09 1.12 1.12 1.11 1.13 1.15 1.15 1.16 1.21 1.29 1.36 1.31 1.29 1.26 1.28 1.32 1.31 1.35 1.37 1.35 1.35 1.37 1.36 1.35 1.36 1.36 1.35 1.33 1.34 1.33 1.31 1.29 1.24 1.19 1.19 1.22 1.30 1.33 1.30 1.30
1.42 1.35 1.23 1.20 1.18 1.18 1.15 1.15 1.20 1.24 1.26 1.29 1.36 1.38 1.38 1.38 1.33 1.34 1.41 1.34 1.38 1.41 1.40 1.40 1.37 1.34 1.33 1.33 1.32 1.31 1.31 1.30 1.30 1.26 1.23 1.20 1.18 1.19 1.25 1.30 1.33 1.34
1.56 1.54 1.47 1.35 1.28 1.27 1.25 1.22 1.23 1.27 1.30 1.31 1.32 1.38 1.42 1.44 1.42 1.36 1.39 1.43 1.37 1.40 1.43 1.42 1.36 1.34 1.31 1.30 1.30 1.28 1.26 1.25 1.27 1.26 1.25 1.22 1.18 1.18 1.20 1.26 1.28 1.31
1.62 1.61 1.62 1.54 1.45 1.41 1.39 1.34 1.30 1.30 1.32 1.33 1.32 1.34 1.39 1.45 1.45 1.42 1.36 1.42 1.48 1.41 1.41 1.39 1.36 1.33 1.29 1.27 1.27 1.26 1.25 1.22 1.19 1.23 1.25 1.23 1.21 1.18 1.16 1.21 1.26 1.28
1.65 1.64 1.63 1.62 1.61 1.55 1.52 1.50 1.44 1.38 1.35 1.36 1.35 1.34 1.39 1.47 1.49 1.46 1.43 1.40 1.46 1.53 1.46 1.38 1.35 1.36 1.36 1.34 1.30 1.27 1.27 1.26 1.24 1.23 1.25 1.25 1.22 1.19 1.19 1.20 1.21 1.25
1.67 1.66 1.65 1.65 1.65 1.64 1.64 1.63 1.57 1.48 1.43 1.41 1.39 1.41 1.44 1.45 1.48 1.52 1.51 1.48 1.44 1.49 1.52 1.50 1.46 1.45 1.42 1.42 1.39 1.37 1.35 1.34 1.33 1.31 1.28 1.27 1.26 1.23 1.19 1.18 1.17 1.18
1.60 1.63 1.64 1.66 1.70 1.71 1.70 1.67 1.62 1.53 1.47 1.46 1.47 1.48 1.47 1.45 1.47 1.49 1.52 1.53 1.50 1.48 1.52 1.57 1.57 1.59 1.57 1.54 1.50 1.47 1.46 1.45 1.44 1.43 1.41 1.38 1.38 1.36 1.32 1.26 1.24 1.20
1.52 1.54 1.58 1.63 1.68 1.70 1.68 1.65 1.63 1.61 1.56 1.51 1.48 1.44 1.42 1.41 1.43 1.45 1.49 1.51 1.51 1.49 1.49 1.53 1.58 1.64 1.63 1.62 1.60 1.59 1.58 1.57 1.55 1.54 1.53 1.53 1.54 1.54 1.52 1.49 1.46 1.43
1.51 1.49 1.50 1.54 1.57 1.59 1.59 1.59 1.61 1.62 1.59 1.57 1.50 1.48 1.49 1.49 1.51 1.50 1.47 1.47 1.50 1.51 1.49 1.47 1.56 1.66 1.66 1.66 1.66 1.65 1.67 1.65 1.63 1.60 1.57 1.57 1.59 1.61 1.63 1.64 1.63 1.59
1.52 1.52 1.52 1.53 1.55 1.55 1.53 1.56 1.60 1.66 1.67 1.65 1.52 1.49 1.49 1.49 1.47 1.46 1.48 1.49 1.51 1.54 1.50 1.49 1.52 1.59 1.63 1.66 1.68 1.71 1.72 1.68 1.66 1.65 1.62 1.58 1.57 1.62 1.67 1.70 1.70 1.69
1.54 1.56 1.54 1.54 1.54 1.52 1.52 1.57 1.64 1.70 1.69 1.69 1.56 1.50 1.50 1.52 1.53 1.52 1.55 1.55 1.54 1.53 1.53 1.50 1.51 1.58 1.59 1.62 1.66 1.70 1.72 1.70 1.69 1.68 1.64 1.62 1.60 1.64 1.71 1.77 1.79 1.76
1.57 1.59 1.58 1.55 1.53 1.55 1.59 1.57 1.59 1.62 1.68 1.71 1.62 1.55 1.51 1.57 1.60 1.57 1.57 1.59 1.58 1.57 1.60 1.57 1.56 1.60 1.61 1.58 1.60 1.65 1.71 1.75 1.76 1.74 1.68 1.65 1.67 1.69 1.75 1.78 1.81 1.84
1.58 1.61 1.60 1.57 1.56 1.60 1.63 1.60 1.66 1.68 1.67 1.68 1.65 1.60 1.54 1.54 1.57 1.57 1.56 1.58 1.62 1.62 1.61 1.61 1.61 1.63 1.64 1.62 1.62 1.65 1.71 1.77 1.81 1.74 1.65 1.66 1.74 1.76 1.75 1.78 1.79 1.80

ECMWFNIL_prec_pwat_063.txt.gz
Precipitable_Water
0.97 0.96 0.95 0.94 0.92 0.94 0.98 0.99 1.03 1.05 1.08 1.09 1.04 1.05 1.07 1.12 1.22 1.25 1.28 1.35 1.36 1.34 1.34 1.36 1.42 1.45 1.47 1.50 1.52 1.46 1.44 1.50 1.54 1.54 1.48 1.42 1.36 1.30 1.21 1.13 1.10 1.09
0.99 0.98 0.98 0.97 0.95 0.97 1.01 1.03 1.01 1.02 1.07 1.10 1.09 1.09 1.14 1.18 1.22 1.22 1.23 1.25 1.31 1.35 1.39 1.40 1.42 1.43 1.43 1.43 1.50 1.48 1.42 1.43 1.44 1.56 1.51 1.43 1.39 1.36 1.28 1.24 1.19 1.14
1.01 0.99 0.97 0.94 0.91 0.92 0.96 1.02 1.02 1.01 1.02 1.09 1.15 1.18 1.19 1.21 1.21 1.22 1.22 1.22 1.23 1.28 1.34 1.39 1.41 1.42 1.42 1.41 1.43 1.49 1.44 1.38 1.36 1.46 1.47 1.45 1.44 1.39 1.36 1.34 1.29 1.24
1.00 0.98 0.96 0.94 0.94 0.93 0.96 1.01 1.04 1.05 1.06 1.07 1.11 1.17 1.20 1.23 1.23 1.22 1.21 1.23 1.22 1.24 1.28 1.31 1.33 1.38 1.40 1.41 1.41 1.41 1.45 1.41 1.38 1.39 1.38 1.43 1.44 1.40 1.39 1.40 1.37 1.35
0.97 0.97 0.98 0.98 0.98 0.98 0.98 0.97 1.02 1.04 1.05 1.05 1.12 1.19 1.20 1.20 1.22 1.22 1.21 1.22 1.23 1.23 1.25 1.25 1.28 1.30 1.35 1.38 1.41 1.37 1.39 1.41 1.41 1.38 1.30 1.28 1.33 1.34 1.35 1.36 1.34 1.32
1.03 1.00 0.98 0.98 0.99 0.99 0.97 0.94 0.96 1.03 1.06 1.09 1.10 1.16 1.19 1.21 1.21 1.21 1.22 1.21 1.22 1.24 1.23 1.24 1.24 1.26 1.29 1.30 1.35 1.35 1.37 1.37 1.41 1.41 1.33 1.25 1.24 1.30 1.30 1.30 1.29 1.26
1.01 1.02 1.01 1.02 1.01 1.01 0.97 0.93 0.93 0.99 1.07 1.10 1.15 1.16 1.20 1.22 1.21 1.21 1.23 1.23 1.24 1.24 1.23 1.23 1.22 1.22 1.25 1.27 1.27 1.29 1.36 1.38 1.41 1.40 1.35 1.32 1.28 1.26 1.30 1.30 1.27 1.24
0.99 1.01 1.02 1.03 1.00 0.98 0.94 0.93 0.94 0.95 1.00 1.10 1.12 1.15 1.19 1.20 1.22 1.24 1.26 1.26 1.26 1.25 1.25 1.25 1.26 1.24 1.25 1.24 1.21 1.22 1.28 1.38 1.39 1.39 1.35 1.34 1.33 1.27 1.28 1.31 1.29 1.25
1.04 1.02 1.03 1.03 1.00 0.98 0.94 0.93 0.94 0.95 0.99 1.00 1.04 1.13 1.20 1.19 1.19 1.24 1.27 1.28 1.27 1.28 1.28 1.27 1.26 1.26 1.27 1.25 1.21 1.19 1.18 1.24 1.30 1.32 1.32 1.31 1.30 1.27 1.28 1.31 1.30 1.28
1.07 1.07 1.06 1.04 1.01 0.99 0.95 0.96 0.97 0.97 1.00 1.00 1.01 1.07 1.14 1.19 1.21 1.22 1.28 1.29 1.28 1.28 1.28 1.27 1.27 1.26 1.26 1.26 1.24 1.21 1.18 1.16 1.22 1.25 1.25 1.25 1.26 1.27 1.28 1.28 1.26 1.26
1.07 1.08 1.05 1.04 1.01 1.00 0.97 0.99 1.01 1.02 1.04 1.03 1.04 1.05 1.09 1.16 1.21 1.26 1.27 1.31 1.28 1.25 1.25 1.25 1.26 1.26 1.24 1.24 1.26 1.27 1.24 1.21 1.21 1.23 1.25 1.24 1.23 1.23 1.24 1.24 1.23 1.20
1.06 1.06 1.04 1.02 1.01 1.01 1.00 1.01 1.04 1.06 1.06 1.06 1.07 1.05 1.09 1.14 1.20 1.26 1.26 1.24 1.28 1.30 1.29 1.27 1.28 1.28 1.25 1.23 1.24 1.27 1.27 1.26 1.24 1.22 1.23 1.26 1.26 1.25 1.23 1.22 1.20 1.18
1.10 1.06 1.04 1.02 1.01 1.01 1.03 1.04 1.05 1.07 1.08 1.07 1.09 1.09 1.11 1.15 1.21 1.24 1.27 1.25 1.24 1.29 1.31 1.30 1.29 1.29 1.28 1.27 1.27 1.27 1.25 1.23 1.22 1.21 1.21 1.24 1.26 1.27 1.26 1.24 1.22 1.21
1.24 1.15 1.09 1.06 1.04 1.03 1.02 1.02 1.04 1.06 1.09 1.13 1.14 1.12 1.15 1.19 1.21 1.22 1.26 1.28 1.26 1.26 1.29 1.33 1.33 1.30 1.29 1.29 1.28 1.26 1.24 1.22 1.21 1.20 1.19 1.20 1.22 1.27 1.28 1.27 1.25 1.24
1.43 1.33 1.23 1.16 1.12 1.08 1.05 1.03 1.04 1.07 1.10 1.13 1.14 1.14 1.17 1.19 1.22 1.25 1.25 1.27 1.30 1.30 1.29 1.32 1.32 1.30 1.30 1.29 1.26 1.25 1.25 1.21 1.19 1.18 1.17 1.16 1.18 1.21 1.25 1.27 1.28 1.26
1.56 1.51 1.42 1.31 1.22 1.15 1.12 1.11 1.11 1.12 1.12 1.12 1.13 1.15 1.16 1.19 1.21 1.26 1.28 1.26 1.26 1.30 1.32 1.32 1.31 1.32 1.31 1.28 1.26 1.23 1.21 1.20 1.20 1.18 1.17 1.16 1.15 1.15 1.16 1.20 1.22 1.24
1.61 1.59 1.56 1.48 1.40 1.30 1.23 1.19 1.18 1.19 1.18 1.17 1.18 1.20 1.20 1.22 1.23 1.21 1.23 1.28 1.28 1.28 1.29 1.30 1.30 1.30 1.29 1.28 1.25 1.25 1.24 1.21 1.17 1.16 1.18 1.18 1.17 1.14 1.10 1.11 1.15 1.20
1.62 1.61 1.59 1.57 1.55 1.48 1.40 1.31 1.26 1.25 1.24 1.23 1.24 1.25 1.29 1.31 1.28 1.24 1.23 1.27 1.31 1.32 1.31 1.29 1.27 1.27 1.28 1.28 1.27 1.26 1.25 1.23 1.22 1.20 1.21 1.21 1.20 1.20 1.19 1.18 1.17 1.17
1.64 1.62 1.60 1.59 1.59 1.58 1.56 1.49 1.39 1.32 1.31 1.30 1.28 1.30 1.34 1.34 1.33 1.32 1.29 1.31 1.33 1.32 1.32 1.31 1.28 1.29 1.30 1.30 1.29 1.28 1.28 1.29 1.29 1.29 1.28 1.29 1.29 1.28 1.28 1.28 1.28 1.26
1.60 1.59 1.59 1.59 1.62 1.63 1.62 1.59 1.53 1.44 1.39 1.39 1.39 1.39 1.36 1.37 1.39 1.37 1.36 1.35 1.35 1.35 1.35 1.36 1.34 1.36 1.37 1.37 1.37 1.37 1.38 1.39 1.39 1.38 1.37 1.38 1.41 1.44 1.45 1.44 1.44 1.41
1.61 1.56 1.54 1.58 1.60 1.60 1.61 1.60 1.60 1.58 1.53 1.50 1.48 1.44 1.40 1.37 1.39 1.39 1.40 1.41 1.41 1.41 1.40 1.40 1.41 1.44 1.45 1.46 1.47 1.48 1.50 1.52 1.52 1.52 1.52 1.51 1.53 1.55 1.56 1.56 1.56 1.54
1.62 1.59 1.55 1.54 1.56 1.56 1.53 1.51 1.53 1.55 1.53 1.54 1.51 1.50 1.50 1.47 1.44 1.44 1.42 1.41 1.43 1.42 1.40 1.39 1.43 1.47 1.47 1.48 1.51 1.54 1.58 1.62 1.63 1.62 1.59 1.57 1.56 1.59 1.61 1.64 1.65 1.62
1.63 1.61 1.58 1.55 1.53 1.51 1.49 1.48 1.47 1.49 1.53 1.57 1.51 1.49 1.48 1.47 1.43 1.40 1.40 1.42 1.44 1.45 1.42 1.38 1.42 1.48 1.50 1.51 1.54 1.59 1.64 1.65 1.65 1.64 1.62 1.59 1.60 1.65 1.69 1.70 1.71 1.71
1.60 1.60 1.58 1.57 1.54 1.48 1.47 1.51 1.56 1.58 1.56 1.59 1.51 1.48 1.46 1.47 1.47 1.43 1.42 1.43 1.43 1.43 1.43 1.39 1.40 1.47 1.52 1.55 1.58 1.62 1.65 1.64 1.65 1.63 1.60 1.61 1.65 1.73 1.75 1.75 1.76 1.78
1.55 1.57 1.57 1.57 1.55 1.54 1.55 1.53 1.54 1.58 1.64 1.68 1.62 1.56 1.50 1.51 1.52 1.46 1.44 1.45 1.46 1.45 1.46 1.44 1.43 1.47 1.51 1.54 1.60 1.66 1.70 1.72 1.71 1.67 1.61 1.62 1.68 1.71 1.79 1.80 1.81 1.84
1.48 1.50 1.54 1.55 1.56 1.60 1.63 1.62 1.64 1.64 1.65 1.67 1.68 1.65 1.58 1.57 1.57 1.53 1.47 1.46 1.48 1.47 1.47 1.48 1.47 1.50 1.56 1.58 1.61 1.66 1.71 1.75 1.77 1.70 1.62 1.67 1.76 1.76 1.75 1.79 1.81 1.83

ECMWFNIL_prec_pwat_069.txt.gz
Precipitable_Water
1.17 1.17 1.14 1.11 1.09 1.07 1.06 1.04 1.06 1.04 1.03 1.05 1.02 1.02 1.03 1.08 1.18 1.23 1.27 1.30 1.30 1.28 1.27 1.29 1.35 1.39 1.46 1.50 1.54 1.60 1.60 1.59 1.59 1.57 1.51 1.43 1.35 1.30 1.23 1.20 1.15 1.11
1.18 1.17 1.16 1.15 1.12 1.12 1.10 1.09 1.07 1.05 1.03 1.03 1.03 1.04 1.07 1.10 1.14 1.18 1.23 1.26 1.29 1.27 1.27 1.28 1.31 1.35 1.40 1.44 1.49 1.52 1.55 1.58 1.56 1.64 1.54 1.46 1.40 1.36 1.29 1.26 1.21 1.17
1.18 1.16 1.14 1.09 1.05 1.04 1.04 1.06 1.07 1.07 1.06 1.06 1.08 1.08 1.07 1.11 1.10 1.14 1.20 1.25 1.27 1.26 1.26 1.26 1.28 1.32 1.36 1.39 1.44 1.47 1.50 1.51 1.51 1.60 1.59 1.51 1.48 1.40 1.35 1.33 1.28 1.22
1.17 1.15 1.13 1.11 1.08 1.04 1.06 1.05 1.04 1.07 1.11 1.08 1.05 1.05 1.07 1.10 1.10 1.10 1.13 1.21 1.23 1.24 1.26 1.27 1.25 1.29 1.33 1.36 1.38 1.38 1.43 1.48 1.51 1.55 1.54 1.55 1.52 1.48 1.43 1.41 1.35 1.30
1.15 1.14 1.14 1.12 1.11 1.08 1.07 1.02 0.99 1.01 1.04 1.04 1.07 1.10 1.08 1.08 1.10 1.10 1.11 1.15 1.20 1.23 1.27 1.27 1.29 1.28 1.30 1.32 1.33 1.30 1.33 1.36 1.46 1.49 1.46 1.45 1.49 1.48 1.47 1.46 1.40 1.33
1.17 1.16 1.13 1.10 1.10 1.08 1.03 0.99 0.98 0.99 1.00 1.04 1.05 1.09 1.08 1.08 1.08 1.10 1.10 1.10 1.14 1.17 1.22 1.26 1.28 1.29 1.31 1.30 1.31 1.28 1.27 1.27 1.32 1.39 1.38 1.37 1.41 1.47 1.47 1.46 1.42 1.36
1.12 1.14 1.13 1.13 1.11 1.10 1.05 1.00 1.00 1.01 1.01 1.02 1.09 1.08 1.09 1.07 1.05 1.07 1.10 1.11 1.11 1.12 1.13 1.16 1.18 1.22 1.28 1.30 1.29 1.27 1.28 1.27 1.28 1.29 1.28 1.30 1.34 1.36 1.43 1.42 1.39 1.35
1.13 1.14 1.15 1.15 1.11 1.10 1.06 1.04 1.02 1.00 1.03 1.07 1.05 1.06 1.09 1.06 1.04 1.06 1.09 1.12 1.10 1.09 1.10 1.12 1.13 1.12 1.15 1.19 1.18 1.19 1.22 1.28 1.26 1.25 1.23 1.23 1.27 1.24 1.28 1.33 1.32 1.28
1.14 1.13 1.14 1.13 1.11 1.10 1.07 1.06 1.05 1.04 1.06 1.04 1.03 1.04 1.09 1.07 1.05 1.06 1.07 1.10 1.10 1.10 1.11 1.11 1.12 1.12 1.13 1.12 1.11 1.10 1.10 1.15 1.19 1.20 1.18 1.17 1.17 1.17 1.19 1.25 1.25 1.22
1.15 1.16 1.15 1.13 1.10 1.10 1.08 1.08 1.08 1.06 1.07 1.04 1.03 1.05 1.03 1.05 1.08 1.07 1.08 1.09 1.08 1.10 1.11 1.11 1.12 1.13 1.14 1.14 1.11 1.10 1.08 1.09 1.12 1.14 1.14 1.14 1.13 1.13 1.17 1.21 1.20 1.19
1.17 1.18 1.15 1.13 1.11 1.11 1.09 1.09 1.08 1.07 1.08 1.05 1.04 1.03 1.02 1.02 1.04 1.08 1.07 1.06 1.04 1.04 1.06 1.09 1.12 1.15 1.15 1.15 1.16 1.16 1.13 1.12 1.12 1.13 1.13 1.12 1.13 1.13 1.14 1.16 1.16 1.15
1.16 1.16 1.14 1.12 1.11 1.10 1.09 1.08 1.08 1.07 1.07 1.07 1.07 1.02 1.02 1.01 1.00 1.03 1.03 1.02 1.02 1.05 1.08 1.11 1.16 1.19 1.18 1.17 1.18 1.19 1.19 1.16 1.14 1.13 1.12 1.12 1.13 1.14 1.16 1.18 1.13 1.09
1.14 1.12 1.11 1.10 1.10 1.09 1.10 1.10 1.08 1.07 1.06 1.04 1.06 1.05 1.02 1.00 1.00 1.00 1.02 1.02 1.03 1.08 1.11 1.14 1.18 1.21 1.20 1.20 1.21 1.21 1.20 1.17 1.15 1.13 1.12 1.12 1.12 1.13 1.17 1.19 1.18 1.17
1.15 1.15 1.14 1.13 1.13 1.14 1.13 1.11 1.09 1.08 1.06 1.06 1.07 1.04 1.02 1.02 1.01 1.00 1.00 1.03 1.05 1.09 1.12 1.19 1.21 1.20 1.20 1.19 1.20 1.20 1.19 1.18 1.17 1.14 1.12 1.12 1.12 1.14 1.17 1.18 1.19 1.20
1.21 1.22 1.22 1.21 1.19 1.17 1.15 1.12 1.10 1.08 1.08 1.07 1.05 1.04 1.05 1.06 1.07 1.07 1.04 1.04 1.08 1.11 1.13 1.18 1.18 1.16 1.16 1.15 1.14 1.16 1.18 1.17 1.17 1.17 1.15 1.12 1.11 1.12 1.15 1.17 1.18 1.20
1.26 1.26 1.25 1.24 1.22 1.18 1.15 1.14 1.13 1.11 1.09 1.07 1.06 1.07 1.07 1.09 1.10 1.12 1.12 1.10 1.10 1.12 1.15 1.17 1.16 1.15 1.13 1.12 1.14 1.14 1.15 1.17 1.18 1.18 1.17 1.15 1.12 1.11 1.13 1.16 1.16 1.19
1.33 1.31 1.31 1.27 1.25 1.23 1.22 1.19 1.17 1.16 1.13 1.11 1.11 1.11 1.10 1.11 1.12 1.10 1.12 1.15 1.15 1.14 1.14 1.16 1.16 1.15 1.12 1.13 1.13 1.15 1.18 1.18 1.16 1.16 1.19 1.18 1.16 1.13 1.10 1.12 1.17 1.22
1.43 1.42 1.38 1.35 1.34 1.30 1.28 1.26 1.24 1.21 1.17 1.15 1.14 1.13 1.14 1.16 1.15 1.12 1.13 1.14 1.16 1.19 1.19 1.18 1.17 1.16 1.16 1.16 1.15 1.16 1.18 1.19 1.20 1.19 1.19 1.19 1.18 1.17 1.17 1.18 1.19 1.22
1.57 1.56 1.54 1.51 1.48 1.45 1.42 1.39 1.33 1.28 1.24 1.21 1.17 1.18 1.19 1.17 1.15 1.17 1.15 1.15 1.15 1.15 1.16 1.19 1.20 1.20 1.19 1.19 1.19 1.19 1.19 1.21 1.22 1.22 1.20 1.19 1.20 1.21 1.21 1.21 1.23 1.24
1.64 1.65 1.64 1.66 1.67 1.65 1.62 1.56 1.49 1.42 1.38 1.37 1.33 1.30 1.23 1.18 1.20 1.19 1.18 1.17 1.17 1.17 1.17 1.18 1.19 1.20 1.21 1.20 1.20 1.20 1.20 1.22 1.23 1.23 1.22 1.21 1.23 1.25 1.26 1.26 1.27 1.27
1.64 1.65 1.66 1.68 1.71 1.72 1.71 1.67 1.62 1.58 1.54 1.50 1.45 1.37 1.31 1.26 1.23 1.21 1.22 1.23 1.23 1.23 1.22 1.20 1.19 1.20 1.21 1.21 1.21 1.21 1.21 1.24 1.26 1.26 1.25 1.24 1.27 1.30 1.31 1.32 1.34 1.39
1.61 1.63 1.66 1.68 1.70 1.71 1.70 1.69 1.69 1.68 1.63 1.62 1.58 1.53 1.49 1.45 1.40 1.36 1.31 1.30 1.29 1.28 1.25 1.22 1.22 1.24 1.24 1.24 1.24 1.23 1.24 1.26 1.26 1.25 1.25 1.27 1.29 1.34 1.37 1.42 1.49 1.54
1.60 1.60 1.62 1.65 1.68 1.68 1.68 1.69 1.69 1.71 1.72 1.74 1.66 1.63 1.59 1.54 1.48 1.43 1.42 1.39 1.37 1.36 1.32 1.28 1.26 1.28 1.28 1.28 1.28 1.28 1.29 1.27 1.27 1.27 1.29 1.30 1.33 1.39 1.48 1.55 1.61 1.65
1.66 1.65 1.62 1.63 1.64 1.63 1.66 1.71 1.75 1.76 1.75 1.78 1.69 1.65 1.62 1.63 1.64 1.60 1.56 1.52 1.47 1.43 1.40 1.33 1.29 1.31 1.33 1.33 1.33 1.34 1.34 1.31 1.31 1.31 1.32 1.36 1.40 1.49 1.57 1.61 1.65 1.69
1.71 1.69 1.67 1.66 1.65 1.66 1.68 1.68 1.71 1.73 1.76 1.78 1.75 1.73 1.69 1.71 1.71 1.67 1.67 1.66 1.62 1.56 1.51 1.45 1.39 1.37 1.37 1.36 1.38 1.39 1.41 1.40 1.40 1.38 1.37 1.41 1.45 1.49 1.58 1.63 1.67 1.71
1.71 1.67 1.66 1.65 1.66 1.70 1.73 1.72 1.74 1.74 1.73 1.74 1.74 1.75 1.72 1.71 1.69 1.65 1.61 1.63 1.67 1.65 1.59 1.54 1.49 1.44 1.41 1.40 1.41 1.43 1.45 1.46 1.46 1.41 1.37 1.41 1.48 1.50 1.51 1.57 1.63 1.67

ECMWFNIL_prec_pwat_072.txt.gz
Precipitable_Water
1.26 1.23 1.17 1.14 1.12 1.12 1.12 1.11 1.14 1.14 1.16 1.19 1.16 1.16 1.15 1.19 1.26 1.25 1.27 1.33 1.34 1.33 1.35 1.36 1.40 1.43 1.47 1.50 1.54 1.57 1.59 1.59 1.58 1.57 1.52 1.49 1.44 1.40 1.31 1.28 1.27 1.24
1.26 1.24 1.21 1.19 1.16 1.16 1.15 1.15 1.14 1.13 1.12 1.14 1.15 1.17 1.21 1.23 1.24 1.25 1.24 1.26 1.31 1.31 1.33 1.34 1.36 1.40 1.43 1.45 1.48 1.51 1.55 1.57 1.55 1.62 1.54 1.50 1.47 1.45 1.38 1.35 1.31 1.31
1.27 1.23 1.20 1.15 1.11 1.10 1.10 1.14 1.15 1.15 1.13 1.13 1.17 1.17 1.18 1.22 1.22 1.23 1.24 1.25 1.26 1.30 1.32 1.32 1.33 1.36 1.40 1.42 1.44 1.45 1.49 1.51 1.51 1.59 1.56 1.51 1.52 1.47 1.44 1.43 1.38 1.34
1.27 1.24 1.19 1.16 1.14 1.11 1.14 1.13 1.13 1.15 1.16 1.14 1.10 1.12 1.16 1.18 1.20 1.20 1.20 1.22 1.22 1.26 1.31 1.33 1.31 1.33 1.35 1.37 1.39 1.39 1.43 1.48 1.52 1.57 1.53 1.53 1.53 1.51 1.48 1.47 1.43 1.39
1.24 1.23 1.22 1.20 1.19 1.17 1.17 1.11 1.08 1.10 1.10 1.09 1.13 1.15 1.14 1.13 1.14 1.14 1.15 1.16 1.17 1.19 1.26 1.27 1.30 1.29 1.31 1.33 1.33 1.30 1.35 1.38 1.46 1.50 1.48 1.45 1.49 1.50 1.51 1.49 1.43 1.38
1.27 1.25 1.23 1.20 1.18 1.16 1.13 1.09 1.08 1.08 1.09 1.10 1.10 1.13 1.11 1.11 1.10 1.10 1.11 1.10 1.12 1.15 1.19 1.22 1.23 1.24 1.26 1.27 1.29 1.27 1.26 1.29 1.35 1.40 1.40 1.39 1.42 1.47 1.48 1.47 1.43 1.38
1.21 1.21 1.20 1.21 1.20 1.18 1.13 1.10 1.09 1.09 1.09 1.10 1.14 1.11 1.11 1.08 1.06 1.06 1.09 1.09 1.09 1.10 1.12 1.14 1.17 1.18 1.22 1.24 1.24 1.23 1.24 1.22 1.27 1.32 1.30 1.33 1.37 1.38 1.42 1.41 1.39 1.35
1.20 1.22 1.21 1.21 1.18 1.17 1.13 1.11 1.10 1.09 1.09 1.12 1.07 1.08 1.10 1.06 1.04 1.06 1.08 1.08 1.07 1.06 1.08 1.11 1.14 1.17 1.23 1.25 1.22 1.21 1.21 1.24 1.22 1.21 1.22 1.25 1.30 1.28 1.32 1.35 1.35 1.31
1.22 1.20 1.21 1.19 1.17 1.15 1.12 1.11 1.11 1.11 1.14 1.08 1.04 1.05 1.07 1.06 1.04 1.05 1.06 1.07 1.06 1.05 1.07 1.09 1.11 1.13 1.19 1.21 1.21 1.21 1.20 1.22 1.24 1.22 1.19 1.19 1.19 1.20 1.23 1.28 1.27 1.24
1.21 1.21 1.19 1.18 1.14 1.14 1.12 1.12 1.12 1.12 1.14 1.09 1.05 1.05 1.03 1.05 1.07 1.06 1.07 1.05 1.03 1.03 1.04 1.06 1.09 1.11 1.12 1.14 1.14 1.16 1.15 1.16 1.20 1.21 1.20 1.19 1.18 1.19 1.21 1.23 1.21 1.19
1.20 1.20 1.18 1.16 1.14 1.14 1.12 1.13 1.13 1.13 1.12 1.08 1.07 1.04 1.03 1.04 1.05 1.07 1.05 1.04 1.00 0.98 0.99 1.01 1.03 1.08 1.09 1.11 1.13 1.15 1.14 1.13 1.14 1.15 1.16 1.16 1.16 1.16 1.18 1.19 1.19 1.16
1.20 1.20 1.17 1.15 1.15 1.14 1.13 1.13 1.14 1.13 1.10 1.10 1.09 1.04 1.05 1.05 1.03 1.04 1.03 0.99 0.98 0.99 0.99 1.00 1.04 1.06 1.08 1.11 1.15 1.17 1.16 1.14 1.13 1.12 1.12 1.13 1.13 1.14 1.14 1.15 1.12 1.11
1.19 1.18 1.17 1.16 1.15 1.14 1.15 1.15 1.13 1.12 1.11 1.08 1.09 1.07 1.04 1.03 1.04 1.03 1.04 1.01 0.98 0.99 0.99 1.00 1.02 1.06 1.08 1.11 1.15 1.17 1.16 1.13 1.11 1.11 1.12 1.13 1.13 1.14 1.16 1.17 1.16 1.15
1.19 1.18 1.17 1.17 1.17 1.18 1.17 1.15 1.14 1.13 1.11 1.11 1.11 1.07 1.04 1.03 1.02 1.01 1.02 1.02 0.99 0.99 1.00 1.03 1.04 1.05 1.07 1.09 1.11 1.13 1.13 1.12 1.12 1.11 1.12 1.13 1.13 1.15 1.17 1.16 1.16 1.17
1.19 1.19 1.19 1.19 1.19 1.18 1.18 1.16 1.15 1.13 1.13 1.12 1.11 1.08 1.07 1.07 1.07 1.06 1.03 1.01 1.02 1.02 1.01 1.05 1.05 1.05 1.06 1.06 1.06 1.08 1.10 1.09 1.11 1.12 1.13 1.12 1.13 1.14 1.17 1.17 1.17 1.17
1.20 1.20 1.19 1.19 1.18 1.15 1.15 1.15 1.14 1.13 1.12 1.11 1.09 1.08 1.08 1.10 1.10 1.09 1.07 1.03 1.00 1.01 1.03 1.06 1.07 1.07 1.07 1.07 1.09 1.08 1.08 1.09 1.10 1.11 1.12 1.13 1.13 1.13 1.14 1.16 1.16 1.17
1.22 1.20 1.20 1.17 1.16 1.16 1.15 1.14 1.13 1.14 1.13 1.10 1.09 1.08 1.08 1.08 1.09 1.06 1.06 1.06 1.04 1.03 1.03 1.06 1.07 1.07 1.07 1.09 1.10 1.11 1.12 1.11 1.09 1.10 1.13 1.14 1.14 1.12 1.09 1.11 1.14 1.18
1.22 1.23 1.21 1.19 1.20 1.17 1.17 1.17 1.17 1.16 1.12 1.10 1.09 1.07 1.07 1.09 1.06 1.05 1.07 1.09 1.09 1.09 1.07 1.08 1.08 1.08 1.09 1.11 1.11 1.12 1.14 1.14 1.14 1.13 1.14 1.14 1.14 1.13 1.13 1.13 1.13 1.15
1.25 1.23 1.22 1.22 1.21 1.22 1.23 1.23 1.20 1.17 1.14 1.11 1.08 1.10 1.11 1.07 1.05 1.08 1.08 1.10 1.11 1.09 1.09 1.11 1.10 1.10 1.11 1.12 1.13 1.13 1.14 1.17 1.18 1.18 1.16 1.15 1.16 1.16 1.15 1.14 1.15 1.15
1.29 1.28 1.26 1.26 1.28 1.30 1.30 1.28 1.25 1.20 1.20 1.20 1.19 1.18 1.14 1.11 1.11 1.09 1.09 1.10 1.11 1.11 1.11 1.12 1.13 1.14 1.15 1.15 1.15 1.16 1.17 1.19 1.20 1.21 1.21 1.20 1.19 1.20 1.19 1.17 1.17 1.16
1.39 1.38 1.37 1.39 1.39 1.39 1.37 1.34 1.32 1.31 1.29 1.28 1.26 1.21 1.18 1.13 1.10 1.09 1.10 1.11 1.13 1.15 1.14 1.13 1.14 1.16 1.17 1.17 1.17 1.18 1.20 1.23 1.24 1.26 1.24 1.23 1.25 1.25 1.23 1.21 1.21 1.24
1.45 1.45 1.47 1.50 1.52 1.53 1.51 1.49 1.47 1.44 1.39 1.40 1.38 1.35 1.34 1.30 1.27 1.24 1.19 1.17 1.19 1.22 1.20 1.15 1.16 1.19 1.18 1.19 1.19 1.20 1.24 1.26 1.25 1.24 1.22 1.22 1.24 1.25 1.24 1.25 1.27 1.28
1.55 1.55 1.57 1.60 1.63 1.63 1.62 1.64 1.64 1.65 1.65 1.66 1.57 1.52 1.46 1.41 1.35 1.33 1.31 1.27 1.26 1.26 1.23 1.20 1.21 1.23 1.22 1.21 1.22 1.24 1.26 1.25 1.23 1.22 1.22 1.20 1.20 1.23 1.24 1.26 1.28 1.31
1.62 1.63 1.63 1.65 1.67 1.66 1.67 1.70 1.73 1.75 1.74 1.78 1.70 1.66 1.61 1.58 1.55 1.50 1.46 1.43 1.37 1.33 1.33 1.29 1.28 1.31 1.29 1.28 1.29 1.29 1.29 1.25 1.23 1.22 1.20 1.19 1.19 1.22 1.25 1.27 1.31 1.36
1.64 1.65 1.65 1.66 1.66 1.68 1.72 1.72 1.74 1.75 1.78 1.81 1.77 1.76 1.73 1.75 1.74 1.68 1.65 1.62 1.58 1.54 1.51 1.46 1.43 1.43 1.42 1.40 1.39 1.38 1.36 1.33 1.28 1.25 1.20 1.18 1.18 1.17 1.25 1.30 1.35 1.43
1.68 1.67 1.68 1.67 1.66 1.69 1.72 1.73 1.77 1.78 1.78 1.78 1.79 1.79 1.77 1.77 1.77 1.75 1.70 1.70 1.74 1.73 1.68 1.63 1.57 1.54 1.54 1.52 1.49 1.46 1.43 1.39 1.36 1.27 1.19 1.18 1.20 1.20 1.22 1.31 1.40 1.49

ECMWFNIL_prec_pwat_075.txt.gz
Precipitable_Water
1.31 1.28 1.23 1.20 1.19 1.18 1.18 1.16 1.20 1.20 1.21 1.24 1.23 1.27 1.29 1.35 1.39 1.35 1.35 1.39 1.43 1.46 1.48 1.47 1.48 1.48 1.51 1.54 1.55 1.54 1.53 1.55 1.55 1.58 1.57 1.54 1.49 1.48 1.43 1.40 1.37 1.31
1.31 1.30 1.28 1.26 1.24 1.23 1.21 1.20 1.20 1.20 1.21 1.24 1.26 1.30 1.33 1.35 1.36 1.35 1.32 1.32 1.36 1.40 1.45 1.46 1.46 1.47 1.47 1.49 1.51 1.49 1.49 1.51 1.50 1.60 1.56 1.54 1.53 1.51 1.46 1.46 1.43 1.41
1.34 1.31 1.28 1.23 1.20 1.18 1.17 1.20 1.20 1.21 1.22 1.24 1.29 1.30 1.29 1.32 1.33 1.33 1.32 1.30 1.30 1.34 1.38 1.42 1.42 1.43 1.45 1.46 1.48 1.48 1.46 1.46 1.45 1.52 1.54 1.53 1.57 1.52 1.51 1.52 1.49 1.46
1.34 1.32 1.29 1.26 1.25 1.21 1.23 1.22 1.20 1.21 1.23 1.22 1.21 1.24 1.26 1.28 1.29 1.30 1.30 1.29 1.28 1.29 1.34 1.36 1.37 1.39 1.41 1.43 1.45 1.44 1.45 1.45 1.47 1.50 1.48 1.53 1.56 1.56 1.54 1.56 1.53 1.50
1.31 1.32 1.32 1.31 1.29 1.28 1.27 1.21 1.17 1.18 1.18 1.18 1.21 1.24 1.23 1.23 1.24 1.25 1.26 1.26 1.26 1.26 1.29 1.31 1.34 1.35 1.38 1.38 1.40 1.39 1.41 1.40 1.43 1.44 1.42 1.42 1.50 1.52 1.54 1.54 1.51 1.48
1.34 1.34 1.34 1.31 1.30 1.28 1.23 1.18 1.17 1.17 1.17 1.18 1.18 1.21 1.20 1.22 1.21 1.21 1.22 1.20 1.22 1.22 1.23 1.26 1.28 1.32 1.35 1.35 1.35 1.34 1.37 1.36 1.39 1.39 1.36 1.36 1.41 1.50 1.50 1.49 1.48 1.45
1.27 1.30 1.30 1.32 1.31 1.30 1.24 1.21 1.20 1.19 1.18 1.18 1.21 1.18 1.19 1.18 1.17 1.17 1.18 1.18 1.18 1.18 1.16 1.17 1.19 1.23 1.31 1.33 1.31 1.28 1.31 1.34 1.37 1.37 1.32 1.34 1.36 1.38 1.45 1.44 1.42 1.40
1.27 1.28 1.29 1.31 1.28 1.27 1.23 1.22 1.21 1.19 1.20 1.21 1.16 1.17 1.18 1.16 1.15 1.17 1.17 1.16 1.14 1.13 1.12 1.13 1.15 1.17 1.24 1.27 1.24 1.21 1.22 1.28 1.29 1.30 1.30 1.29 1.33 1.30 1.35 1.40 1.39 1.35
1.28 1.26 1.27 1.26 1.24 1.23 1.20 1.20 1.20 1.21 1.23 1.17 1.15 1.15 1.17 1.16 1.15 1.15 1.14 1.13 1.11 1.10 1.10 1.10 1.12 1.13 1.18 1.20 1.18 1.17 1.16 1.20 1.23 1.24 1.25 1.25 1.24 1.25 1.30 1.35 1.33 1.31
1.25 1.26 1.24 1.23 1.19 1.19 1.17 1.19 1.20 1.21 1.22 1.17 1.15 1.16 1.12 1.13 1.15 1.14 1.13 1.10 1.07 1.07 1.07 1.07 1.09 1.11 1.13 1.15 1.15 1.15 1.15 1.16 1.21 1.22 1.23 1.23 1.24 1.26 1.30 1.33 1.30 1.28
1.22 1.24 1.21 1.19 1.17 1.17 1.15 1.17 1.19 1.19 1.20 1.16 1.16 1.13 1.12 1.11 1.11 1.12 1.10 1.07 1.02 1.01 1.01 1.02 1.05 1.08 1.09 1.11 1.14 1.17 1.17 1.18 1.21 1.22 1.22 1.21 1.21 1.23 1.27 1.29 1.29 1.26
1.19 1.20 1.18 1.16 1.15 1.14 1.14 1.16 1.17 1.17 1.16 1.17 1.16 1.12 1.12 1.11 1.08 1.07 1.04 1.01 1.00 0.99 0.99 1.01 1.04 1.07 1.08 1.09 1.12 1.15 1.16 1.17 1.19 1.19 1.19 1.18 1.17 1.18 1.21 1.24 1.23 1.23
1.16 1.15 1.16 1.16 1.16 1.15 1.17 1.17 1.16 1.16 1.15 1.13 1.15 1.13 1.10 1.08 1.07 1.04 1.04 1.00 0.99 0.99 0.98 0.99 1.01 1.04 1.06 1.08 1.10 1.13 1.13 1.12 1.12 1.13 1.13 1.15 1.15 1.16 1.18 1.19 1.20 1.20
1.15 1.17 1.17 1.17 1.18 1.19 1.18 1.17 1.16 1.15 1.14 1.15 1.16 1.12 1.09 1.06 1.05 1.03 1.03 1.02 0.99 0.98 0.98 1.01 1.01 1.01 1.02 1.05 1.08 1.10 1.11 1.10 1.10 1.09 1.08 1.09 1.11 1.14 1.16 1.16 1.17 1.18
1.17 1.19 1.20 1.19 1.19 1.19 1.18 1.17 1.16 1.15 1.16 1.15 1.13 1.11 1.11 1.09 1.09 1.07 1.04 1.00 1.00 0.99 0.99 1.02 1.00 0.98 1.00 1.01 1.02 1.06 1.10 1.09 1.10 1.09 1.08 1.06 1.07 1.10 1.12 1.13 1.14 1.16
1.19 1.19 1.18 1.19 1.18 1.16 1.17 1.18 1.17 1.17 1.16 1.13 1.11 1.11 1.10 1.10 1.09 1.09 1.05 1.00 0.98 0.99 1.00 1.01 0.99 0.99 0.98 0.98 1.02 1.05 1.09 1.10 1.11 1.10 1.09 1.07 1.06 1.05 1.07 1.09 1.10 1.11
1.24 1.19 1.19 1.16 1.16 1.17 1.18 1.18 1.17 1.18 1.15 1.13 1.12 1.11 1.09 1.10 1.09 1.06 1.04 1.02 1.00 0.98 0.97 0.97 0.98 0.97 0.96 0.98 1.00 1.05 1.10 1.12 1.10 1.09 1.10 1.08 1.06 1.03 1.00 1.02 1.06 1.10
1.25 1.23 1.19 1.17 1.18 1.16 1.16 1.17 1.18 1.17 1.14 1.13 1.12 1.10 1.10 1.11 1.07 1.05 1.05 1.04 1.03 1.00 0.97 0.96 0.95 0.95 0.97 0.98 1.00 1.04 1.09 1.11 1.14 1.13 1.11 1.09 1.07 1.05 1.05 1.06 1.05 1.07
1.27 1.23 1.19 1.18 1.17 1.17 1.18 1.18 1.16 1.14 1.12 1.11 1.08 1.11 1.12 1.09 1.06 1.06 1.04 1.06 1.04 1.00 0.97 0.98 0.96 0.95 0.96 0.97 1.00 1.04 1.07 1.11 1.13 1.15 1.13 1.10 1.09 1.08 1.07 1.07 1.07 1.07
1.26 1.23 1.19 1.18 1.19 1.19 1.19 1.16 1.13 1.09 1.10 1.12 1.13 1.14 1.12 1.09 1.09 1.08 1.08 1.07 1.04 1.02 1.02 1.03 1.01 0.99 0.97 0.97 0.99 1.03 1.07 1.11 1.14 1.15 1.16 1.15 1.13 1.12 1.11 1.08 1.08 1.06
1.23 1.20 1.18 1.19 1.20 1.19 1.17 1.14 1.12 1.12 1.13 1.14 1.14 1.12 1.10 1.08 1.08 1.07 1.08 1.08 1.08 1.09 1.08 1.07 1.06 1.06 1.04 1.01 1.01 1.03 1.08 1.12 1.16 1.18 1.18 1.18 1.19 1.18 1.15 1.12 1.12 1.13
1.19 1.18 1.18 1.20 1.20 1.20 1.17 1.15 1.16 1.16 1.14 1.18 1.18 1.18 1.19 1.19 1.18 1.17 1.15 1.14 1.15 1.15 1.13 1.08 1.09 1.10 1.09 1.07 1.07 1.08 1.11 1.16 1.18 1.18 1.17 1.18 1.19 1.22 1.20 1.19 1.18 1.18
1.21 1.18 1.18 1.19 1.21 1.19 1.17 1.18 1.18 1.20 1.22 1.27 1.22 1.22 1.22 1.21 1.20 1.21 1.23 1.21 1.19 1.19 1.16 1.12 1.11 1.13 1.13 1.12 1.13 1.15 1.18 1.20 1.20 1.20 1.20 1.19 1.20 1.23 1.25 1.23 1.23 1.23
1.30 1.29 1.27 1.28 1.29 1.25 1.26 1.28 1.32 1.34 1.33 1.37 1.30 1.28 1.26 1.28 1.31 1.30 1.30 1.29 1.26 1.23 1.23 1.18 1.16 1.20 1.19 1.18 1.19 1.21 1.24 1.24 1.25 1.23 1.21 1.22 1.23 1.27 1.29 1.27 1.25 1.24
1.40 1.40 1.38 1.38 1.36 1.38 1.42 1.43 1.45 1.48 1.54 1.58 1.55 1.54 1.51 1.53 1.50 1.44 1.42 1.41 1.39 1.36 1.35 1.30 1.28 1.30 1.30 1.28 1.27 1.28 1.31 1.34 1.33 1.29 1.25 1.23 1.24 1.25 1.30 1.29 1.28 1.27
1.46 1.44 1.44 1.43 1.43 1.47 1.52 1.55 1.61 1.64 1.66 1.68 1.71 1.73 1.72 1.73 1.73 1.70 1.64 1.62 1.62 1.57 1.50 1.45 1.40 1.39 1.40 1.36 1.35 1.35 1.38 1.42 1.43 1.36 1.28 1.26 1.27 1.26 1.24 1.28 1.29 1.27